Zurück zum Katalog

ALOUETTE 1

S-27

AktivWissenschaftPO
NORAD 424·PAYLOAD·🇨🇦 Canada

Gestartet Sep 29, 1962 von Vandenberg Space Force Base

Loading…

Nächste Überflüge (nächste 24 Stunden)

TLE

AktuellSource: Space-Track

Epoche: Sep 6, 2026, 04:51 UTC

1 00424U 62049A   26249.20236235  .00000060  00000-0  58213-4 0  9996
2 00424  80.4695 176.2209 0023770  29.5613 330.6870 13.69601629192200

Verfolge ALOUETTE 1 in Echtzeit mit AllMySat

Download on the App Store